User: anonymous   Login
Location: Potawatomi Wildlife Park
(41.2308°N, 86.1050°W)
Time: 05:09:38
(UTC-05:00)
Language:

SL-16 R/B - Orbit

View from above orbital plane
View from above orbital plane
View from above satellite
View from above satellite

Ground track
Ground track

The orbit data is extracted from the following two-line orbital elements,

1 27006U 01056F   15030.92835126 -.00000003  00000-0  43828-4 0  3540
2 27006 099.1865 193.6126 0015217 059.1744 105.2644 13.70940785657520
Epoch (UTC): 30 January 2015 22:16:49
Eccentricity: 0.0015217
inclination: 99.1865°
perigee height: 985 km
apogee height: 1007 km
right ascension of ascending node: 193.6126°
argument of perigee: 59.1744°
revolutions per day: 13.70940785
mean anomaly at epoch: 105.2644°
orbit number at epoch: 65752

The dashed part of the orbit path shows where the satellite is in the earth's shadow,  

DLR